Location: Carri�res
(48.9069°N, 2.1792°E)
Time: 12:48:44
(UTC+00:00)

Cosmos 2297 Rocket - Pass Details

Date: 17 January 2021
Orbit: 841 x 842 km, 71.0° (Epoch: 26 February)

Event Time Altitude Azimuth Distance (km) Brightness Sun altitude
Rises 17:26:30 0° 242° (WSW) 3,390 7.5 -9.9°
Reaches altitude 10° 17:29:16 10° 254° (WSW) 2,459 6.3 -10.3°
Maximum altitude 17:34:08 29° 314° (NW) 1,500 3.8 -11.0°
Drops below altitude 10° 17:39:02 10° 14° (NNE) 2,470 4.3 -11.8°
Enters shadow 17:41:08 - 23° (NNE) 3,170 4.8 -12.1°
